N612HS KMEM-

Flight info

Callsign N612HS
Flight time N/A
Altitude VFR
Route VFR EAST
Aircraft PA24/L-DOV/C

Departure

Time 2026-05-04 01:21
Airport Memphis International Airport (KMEM)

Arrival

Time N/A
Airport -
Time Latitude Longitude Altitude Speed Heading
2026-05-04 01:20 35.03561 -89.98723 522 ft 90 kts 182°
2026-05-04 01:21 35.02911 -89.98733 722 ft 95 kts 183°
2026-05-04 01:21 35.02261 -89.98737 940 ft 93 kts 178°
2026-05-04 01:21 35.01620 -89.98617 1184 ft 92 kts 176°
2026-05-04 01:21 35.00970 -89.98542 1333 ft 94 kts 176°
2026-05-04 01:22 35.00327 -89.98509 1520 ft 92 kts 178°
2026-05-04 01:22 34.99683 -89.98364 1647 ft 94 kts 172°
2026-05-04 01:22 34.99048 -89.98246 1822 ft 91 kts 176°
2026-05-04 01:22 34.98423 -89.98127 1976 ft 91 kts 178°
2026-05-04 01:23 34.97759 -89.98036 2015 ft 98 kts 179°
2026-05-04 01:23 34.97104 -89.98073 2181 ft 94 kts 206°
2026-05-04 01:23 34.96627 -89.98604 2285 ft 97 kts 238°
2026-05-04 01:23 34.96453 -89.99416 2337 ft 103 kts 263°
2026-05-04 01:24 34.96479 -90.00300 2430 ft 102 kts 263°
2026-05-04 01:24 34.96400 -90.01133 2540 ft 102 kts 239°
2026-05-04 01:24 34.95836 -90.01745 2532 ft 119 kts 199°
2026-05-04 01:24 34.94953 -90.01732 2523 ft 137 kts 172°
2026-05-04 01:25 34.94042 -90.01306 2517 ft 145 kts 148°
2026-05-04 01:25 34.93539 -90.00217 2515 ft 157 kts 104°
2026-05-04 01:25 34.93529 -89.98835 2510 ft 168 kts 98°
2026-05-04 01:25 34.93468 -89.97405 2506 ft 170 kts 97°
2026-05-04 01:26 34.93426 -89.95968 2508 ft 170 kts 96°
2026-05-04 01:26 34.93391 -89.94522 2508 ft 171 kts 96°
2026-05-04 01:26 34.93364 -89.93007 1576 ft 204 kts 95°
2026-05-04 01:26 34.93339 -89.91357 1558 ft 182 kts 95°
2026-05-04 01:27 34.93295 -89.89865 1589 ft 172 kts 96°
2026-05-04 01:27 34.93263 -89.88419 1569 ft 169 kts 96°
2026-05-04 01:27 34.93232 -89.87038 1561 ft 168 kts 96°
2026-05-04 01:27 34.93142 -89.85596 1318 ft 158 kts 101°
2026-05-04 01:28 34.93022 -89.84299 1368 ft 159 kts 101°
2026-05-04 01:28 34.92924 -89.82897 1426 ft 158 kts 98°